DEKPA EDLF-EDLF

Flight info

Callsign DEKPA
Flight time N/A
Altitude 3000
Route EDLF EDLF
Aircraft DA40/L-SDFGIRY/E

Departure

Time 2026-05-05 18:59
Airport Grefrath-Niershorst Airfield (EDLF)

Arrival

Time N/A
Airport Grefrath-Niershorst Airfield (EDLF)
Time Latitude Longitude Altitude Speed Heading
2026-05-05 18:55 51.33380 6.35602 109 ft 0 kts 184°
2026-05-05 18:56 51.33375 6.35602 109 ft 0 kts 181°
2026-05-05 18:58 51.33359 6.35595 111 ft 9 kts 219°
2026-05-05 18:58 51.33317 6.35449 111 ft 18 kts 252°
2026-05-05 18:58 51.33286 6.35398 111 ft 0 kts 110°
2026-05-05 18:58 51.33250 6.35453 113 ft 12 kts 80°
2026-05-05 18:59 51.33318 6.35682 110 ft 51 kts 60°
2026-05-05 18:59 51.33515 6.36386 279 ft 76 kts 58°
2026-05-05 18:59 51.33726 6.37167 578 ft 80 kts 57°
2026-05-05 18:59 51.33846 6.38128 755 ft 101 kts 97°
2026-05-05 19:00 51.33291 6.38860 927 ft 121 kts 167°
2026-05-05 19:00 51.32496 6.39111 1210 ft 114 kts 162°
2026-05-05 19:00 51.31695 6.39261 1348 ft 126 kts 192°
2026-05-05 19:00 51.31055 6.38360 1286 ft 123 kts 251°
2026-05-05 19:01 51.30781 6.37078 1242 ft 121 kts 257°
2026-05-05 19:01 51.30529 6.35764 1192 ft 122 kts 259°
2026-05-05 19:01 51.30291 6.34516 1354 ft 114 kts 257°
2026-05-05 19:01 51.30298 6.33333 1414 ft 105 kts 306°
2026-05-05 19:02 51.30887 6.32734 1120 ft 96 kts 343°
2026-05-05 19:02 51.31458 6.32306 954 ft 90 kts 336°
2026-05-05 19:02 51.31988 6.32455 835 ft 87 kts 41°
2026-05-05 19:02 51.32301 6.33287 667 ft 85 kts 54°
2026-05-05 19:03 51.32578 6.34077 560 ft 79 kts 54°
2026-05-05 19:03 51.32960 6.34642 319 ft 78 kts 41°
2026-05-05 19:03 51.33231 6.35386 135 ft 75 kts 76°
2026-05-05 19:03 51.33431 6.36067 111 ft 61 kts 65°
2026-05-05 19:04 51.33590 6.36704 315 ft 62 kts 67°
2026-05-05 19:04 51.33733 6.37375 567 ft 68 kts 63°
2026-05-05 19:04 51.33968 6.38108 812 ft 82 kts 51°
2026-05-05 19:04 51.34384 6.38764 1046 ft 89 kts 38°
2026-05-05 19:05 51.34866 6.39433 1261 ft 95 kts 40°
2026-05-05 19:05 51.35363 6.40137 1493 ft 96 kts 40°
2026-05-05 19:05 51.35862 6.40840 1735 ft 96 kts 40°
2026-05-05 19:05 51.36357 6.41533 1940 ft 93 kts 40°
2026-05-05 19:06 51.36843 6.42189 2165 ft 90 kts 38°
2026-05-05 19:06 51.37348 6.42802 2393 ft 93 kts 39°
2026-05-05 19:06 51.37861 6.43457 2622 ft 95 kts 40°
2026-05-05 19:06 51.38374 6.44151 2854 ft 98 kts 41°
2026-05-05 19:07 51.38900 6.44888 3018 ft 106 kts 42°
2026-05-05 19:07 51.39491 6.45736 3033 ft 120 kts 43°
2026-05-05 19:07 51.40122 6.46656 3030 ft 124 kts 43°
2026-05-05 19:07 51.40757 6.47591 3019 ft 125 kts 43°
2026-05-05 19:08 51.41373 6.48506 2992 ft 115 kts 44°
2026-05-05 19:08 51.41942 6.49357 2982 ft 109 kts 44°
2026-05-05 19:08 51.42484 6.50170 2979 ft 105 kts 44°
2026-05-05 19:08 51.43011 6.50964 2978 ft 104 kts 44°
2026-05-05 19:09 51.43534 6.51755 2979 ft 102 kts 44°
2026-05-05 19:09 51.44055 6.52501 3000 ft 100 kts 38°
2026-05-05 19:09 51.44617 6.53171 2982 ft 101 kts 38°
2026-05-05 19:09 51.45164 6.53847 3000 ft 98 kts 39°
2026-05-05 19:10 51.45694 6.54545 3005 ft 99 kts 41°
2026-05-05 19:10 51.46221 6.55279 3008 ft 100 kts 43°
2026-05-05 19:10 51.46741 6.56035 3149 ft 103 kts 44°
2026-05-05 19:10 51.47149 6.56949 3388 ft 105 kts 66°
2026-05-05 19:11 51.47434 6.58035 3638 ft 106 kts 66°
2026-05-05 19:11 51.47731 6.59128 3891 ft 108 kts 65°
2026-05-05 19:11 51.48033 6.60234 4146 ft 109 kts 65°
2026-05-05 19:11 51.48344 6.61347 4407 ft 109 kts 65°
2026-05-05 19:12 51.48666 6.62446 4658 ft 109 kts 65°
2026-05-05 19:12 51.48992 6.63526 4907 ft 109 kts 63°
2026-05-05 19:12 51.49311 6.64626 5163 ft 109 kts 66°
2026-05-05 19:12 51.49634 6.65734 5413 ft 110 kts 66°
2026-05-05 19:13 51.49959 6.66860 5659 ft 112 kts 65°
2026-05-05 19:13 51.50290 6.67996 5917 ft 113 kts 65°
2026-05-05 19:13 51.50630 6.69202 6013 ft 126 kts 66°
2026-05-05 19:13 51.51008 6.70485 6018 ft 126 kts 65°
2026-05-05 19:14 51.51373 6.71733 6023 ft 124 kts 65°
2026-05-05 19:14 51.51735 6.72981 6025 ft 123 kts 65°
2026-05-05 19:14 51.52099 6.74231 6018 ft 124 kts 66°
2026-05-05 19:14 51.52470 6.75481 6014 ft 124 kts 65°
2026-05-05 19:15 51.52857 6.76714 6011 ft 123 kts 64°
2026-05-05 19:15 51.53234 6.77945 6007 ft 122 kts 65°
2026-05-05 19:15 51.53611 6.79163 6005 ft 121 kts 65°
2026-05-05 19:15 51.53980 6.80352 6007 ft 120 kts 65°
2026-05-05 19:16 51.54353 6.81546 6000 ft 119 kts 65°
2026-05-05 19:16 51.54719 6.82743 6002 ft 119 kts 65°
2026-05-05 19:16 51.55085 6.83943 6006 ft 120 kts 65°
2026-05-05 19:16 51.55452 6.85142 6003 ft 119 kts 65°
2026-05-05 19:17 51.55818 6.86338 5999 ft 119 kts 65°
2026-05-05 19:17 51.56187 6.87525 6005 ft 119 kts 65°
2026-05-05 19:17 51.56550 6.88708 5999 ft 119 kts 65°
2026-05-05 19:17 51.56913 6.89906 5998 ft 119 kts 65°
2026-05-05 19:18 51.57278 6.91103 6004 ft 119 kts 64°
2026-05-05 19:18 51.57646 6.92304 6006 ft 119 kts 65°
2026-05-05 19:18 51.58014 6.93497 6003 ft 119 kts 64°
2026-05-05 19:18 51.58378 6.94689 5998 ft 119 kts 65°
2026-05-05 19:19 51.58741 6.95881 5993 ft 119 kts 65°
2026-05-05 19:19 51.59104 6.97080 5993 ft 119 kts 65°
2026-05-05 19:19 51.59467 6.98265 5998 ft 119 kts 65°
2026-05-05 19:19 51.59832 6.99446 5996 ft 117 kts 65°
2026-05-05 19:20 51.60194 7.00624 6001 ft 117 kts 65°
2026-05-05 19:20 51.60551 7.01799 6004 ft 117 kts 65°
2026-05-05 19:20 51.60905 7.02982 6005 ft 117 kts 65°
2026-05-05 19:20 51.61261 7.04159 6008 ft 117 kts 65°
2026-05-05 19:21 51.61616 7.05332 6006 ft 116 kts 65°
2026-05-05 19:21 51.61969 7.06499 6006 ft 116 kts 65°
2026-05-05 19:21 51.62321 7.07667 6004 ft 116 kts 65°
2026-05-05 19:21 51.62666 7.08827 6003 ft 116 kts 65°
2026-05-05 19:22 51.63021 7.09998 6005 ft 116 kts 65°
2026-05-05 19:22 51.63374 7.11164 6002 ft 116 kts 65°
2026-05-05 19:22 51.63726 7.12325 6005 ft 115 kts 65°
2026-05-05 19:22 51.64078 7.13488 6002 ft 115 kts 65°
2026-05-05 19:23 51.64426 7.14660 5997 ft 117 kts 66°
2026-05-05 19:23 51.64779 7.15836 6003 ft 116 kts 64°
2026-05-05 19:23 51.65135 7.17008 5998 ft 116 kts 66°
2026-05-05 19:23 51.65488 7.18169 5895 ft 111 kts 65°
2026-05-05 19:24 51.65706 7.18896 5803 ft 106 kts 65°
2026-05-05 19:24 51.66025 7.19946 5670 ft 103 kts 65°
2026-05-05 19:24 51.66335 7.20991 5530 ft 104 kts 65°
2026-05-05 19:24 51.66586 7.22079 5409 ft 105 kts 90°
2026-05-05 19:25 51.66369 7.23231 5271 ft 110 kts 111°
2026-05-05 19:25 51.66095 7.24379 5141 ft 111 kts 107°
2026-05-05 19:25 51.65790 7.25568 5024 ft 115 kts 110°
2026-05-05 19:25 51.65500 7.26747 4897 ft 111 kts 108°
2026-05-05 19:26 51.65284 7.27873 4768 ft 105 kts 107°
2026-05-05 19:26 51.65033 7.28986 4634 ft 106 kts 112°
2026-05-05 19:26 51.64723 7.30048 4507 ft 104 kts 115°
2026-05-05 19:26 51.64412 7.31073 4380 ft 101 kts 114°
2026-05-05 19:27 51.64103 7.32076 4245 ft 99 kts 114°
2026-05-05 19:27 51.63792 7.33055 4110 ft 98 kts 114°
2026-05-05 19:27 51.63478 7.34055 3933 ft 102 kts 113°
2026-05-05 19:27 51.63155 7.35098 3758 ft 105 kts 114°
2026-05-05 19:28 51.62809 7.36142 3586 ft 106 kts 114°
2026-05-05 19:28 51.62469 7.37195 3409 ft 106 kts 114°
2026-05-05 19:28 51.62130 7.38235 3234 ft 104 kts 115°
2026-05-05 19:28 51.61794 7.39247 3058 ft 102 kts 115°
2026-05-05 19:29 51.61470 7.40230 2874 ft 100 kts 114°
2026-05-05 19:29 51.61142 7.41214 2694 ft 99 kts 114°
2026-05-05 19:29 51.60819 7.42174 2516 ft 96 kts 113°
2026-05-05 19:29 51.60484 7.43101 2335 ft 95 kts 115°
2026-05-05 19:30 51.60151 7.44017 2153 ft 94 kts 114°
2026-05-05 19:30 51.59815 7.44921 2013 ft 91 kts 114°
2026-05-05 19:30 51.59477 7.45785 2010 ft 96 kts 114°
2026-05-05 19:30 51.59119 7.46731 2019 ft 101 kts 114°
2026-05-05 19:31 51.58755 7.47734 2016 ft 107 kts 114°
2026-05-05 19:31 51.58446 7.48820 2017 ft 107 kts 104°
2026-05-05 19:31 51.58185 7.49923 2017 ft 107 kts 105°
2026-05-05 19:31 51.57920 7.51042 2006 ft 107 kts 105°
2026-05-05 19:32 51.57662 7.52165 2006 ft 106 kts 102°
2026-05-05 19:32 51.57426 7.53285 1976 ft 109 kts 115°
2026-05-05 19:32 51.56730 7.53874 1885 ft 126 kts 168°
2026-05-05 19:32 51.55886 7.54138 1865 ft 123 kts 159°
2026-05-05 19:33 51.55051 7.54507 1703 ft 123 kts 160°
2026-05-05 19:33 51.54262 7.54832 1608 ft 110 kts 161°
2026-05-05 19:33 51.53572 7.55273 1436 ft 109 kts 149°
2026-05-05 19:33 51.52886 7.55763 1296 ft 105 kts 154°
2026-05-05 19:34 51.52232 7.56243 1292 ft 100 kts 149°
2026-05-05 19:34 51.51603 7.56739 1399 ft 103 kts 149°
2026-05-05 19:34 51.50978 7.57426 1280 ft 117 kts 121°
2026-05-05 19:35 51.51296 7.59718 635 ft 112 kts 57°
2026-05-05 19:35 51.51665 7.60763 421 ft 103 kts 56°
2026-05-05 19:35 51.52003 7.61710 438 ft 92 kts 57°
2026-05-05 19:35 51.52274 7.62536 809 ft 84 kts 58°
2026-05-05 19:36 51.52767 7.62965 1120 ft 86 kts 358°
2026-05-05 19:36 51.53369 7.62818 1410 ft 91 kts 354°
2026-05-05 19:36 51.54013 7.62601 1673 ft 98 kts 353°
2026-05-05 19:36 51.54687 7.62372 1977 ft 101 kts 353°
2026-05-05 19:37 51.55412 7.62124 2005 ft 112 kts 355°
2026-05-05 19:37 51.56191 7.61857 2022 ft 117 kts 353°
2026-05-05 19:37 51.56985 7.61533 2053 ft 117 kts 354°
2026-05-05 19:37 51.57780 7.61271 2075 ft 113 kts 350°
2026-05-05 19:38 51.58500 7.60994 2091 ft 104 kts 351°
2026-05-05 19:38 51.59230 7.60753 2008 ft 105 kts
2026-05-05 19:38 51.59929 7.60230 2057 ft 118 kts 329°
2026-05-05 19:38 51.60658 7.59456 2011 ft 130 kts 333°
2026-05-05 19:39 51.61407 7.58621 2008 ft 132 kts 333°
2026-05-05 19:39 51.62102 7.57662 2120 ft 134 kts 312°
2026-05-05 19:39 51.62578 7.56359 2256 ft 135 kts 301°
2026-05-05 19:39 51.62736 7.54896 2362 ft 131 kts 273°
2026-05-05 19:40 51.62773 7.53497 2474 ft 120 kts 277°
2026-05-05 19:40 51.62830 7.52194 2584 ft 113 kts 276°
2026-05-05 19:40 51.62863 7.51367 2658 ft 111 kts 276°